Location: *
(45.1961°N, 1.9694°E)
Time: 13:03:54
(UTC+00:00)

FALCON 9 R/B - Pass Details

Date: 25 August 2019
Orbit: 284 x 10171 km, 34.5° (Epoch: 23 October)

Event Time Altitude Azimuth Distance (km) Brightness Sun altitude
Rises 22:00:21 0° 255° (WSW) 10,805 8.1 -28.6°
Reaches altitude 10° 22:11:24 10° 252° (WSW) 7,818 7.2 -29.6°
Enters shadow 22:28:29 42° 205° (SSW) 2,351 4.1 -30.9°
